OBJECT A, 44310

Orbit data source: Space-Track

You're viewing an Uncataloged Satellite

Recently launched and/or uncataloged satellites may have evolving metadata. Metadata may include but not limited to: Owner, Maufacturer, Bus, Motor, and Mission.

OBJECT A, 44310 is a satellite owned by CETG (CN) in LEO that was launched on Wed, 05 Jun 2019 UTC via a CHANG ZHENG 11 launch vehicle from the Yellow Sea Launch Area, China (YSLA). Unknown objects in Earth's orbit typically refer to objects detected orbiting the Earth but have not yet been identified or cataloged. These objects could be anything from previously untracked satellites, spent rocket stages, debris from satellite collisions, or even natural meteoroids temporarily captured by Earth's gravity.

Loading next visibility...
Identifier
44310, 2019-032A
Orbit
LEO
Last TLE update
8 hours ago
Origin
Flag of CNDKJ (CN / PRC)
Manufacturer
DKJ?
Mission
Operational Commercial Technology
Bus & Motor
TIANDI, Unknown motor
Mass
65 kg wet, 65 kg dry
Launch date (UTC)
2019-06-05 (6 years ago)
Launch vehicle
CHANG ZHENG 11
Launch site
Yellow Sea Launch Area, China (YSLA)
Object type
Unknown
Shape & HBR
Box, Unknown HBR
Radar Cross Section
1.500 m², Medium (>0.1 m² and < 1m²)

Expand to show TLE details & history

TLE from 8 hours ago
0 OBJECT A
1 44310U 19032A   25184.18562898  .00007091  00000-0  34834-3 0  9996
2 44310  44.9755 151.0531 0010925  63.8713 296.3289 15.18672311333967
Epoch: 2025-07-03T04:27Z
TLE epoch observation values (Epoch: 2025-07-03T04:27:18.343Z)
Latitude
-0.00004°
Longitude
162.77063°
Altitude
506.518 km
Speed
7.614 km/s
True Right ascension
10h 04m 12s
True Declination
0° 00' 00"
Sunlit
Object was in daylight at epoch
Visualization orbit readout
Latitude
-35.61074°
Longitude
115.58199°
Altitude
524.156 km
Speed
7.599 km/s
Apparent Right ascension
09h 12m 21s
Apparent Declination
-43° 53' 19"
Sunlit
Object is in daylight
Visualization observer readout
Local Sidereal Time
23:52:59
Azimuth
110.987° ESE
Elevation
-60.144°
Doppler factor
1
Orbital elements
Apogee altitude
518.986 km
Perigee altitude
503.932 km
Semi-major axis
6,889.596 km
Eccentricity
0.00109
Inclination
44.9755°
RAAN
151.0531°
Arg. of periapsis
63.8713°
True anomaly
Unknown
Mean anomaly
296.3289°
Eccentric anomaly
Unknown
Mean motion
3.79536 °/min
Orbital period
94.85 mins
BSTAR
0.00034834
Loading maneuver chart data...
Loading SW <> Apogee altitude chart data...
Loading historical data...
Loading historical data...
Loading historical data...
Loading historical data...
Loading historical data...
Loading historical data...
Loading historical data...

OBJECT A Visibility forecast

Observer location: undefined°, undefined°

Span
Click to sort rows by Start time (UTC) header in descending order
Start Az.
Max El. time (UTC)
Max El. Az.
Max El.
End time (UTC)
End Az.
5 mins2025-07-04 01:12:23.122Z223.415° SW2025-07-04 01:14:23.122Z155.408° SSE40.938°2025-07-04 01:17:23.122Z73.91° E
6 mins2025-07-04 02:51:23.122Z281.652° WNW2025-07-04 02:54:23.122Z11.212° NNE34.122°2025-07-04 02:57:23.122Z61.759° ENE
6 mins2025-07-04 04:31:23.122Z305.125° NW2025-07-04 04:33:23.122Z350.545° N32.387°2025-07-04 04:37:23.122Z78.971° E
5 mins2025-07-04 06:11:23.122Z290.043° WNW2025-07-04 06:13:23.122Z204.622° SW44.657°2025-07-04 06:16:23.122Z119.32° SE
|